Time,TemperatureF,DewpointF,PressureIn,WindDirection,WindDirectionDegrees,WindSpeedMPH,WindSpeedGustMPH,Humidity,HourlyPrecipIn,Conditions,Clouds,dailyrainin,SoftwareType,DateUTC
2013-07-05 00:00:00,64.3,51.9,29.56,NE,53,0.0,14.0,64,0.00,,,0.00,Wunderground v.1.13,2013-07-05 06:00:00,
2013-07-05 00:05:00,64.3,52.3,29.56,NE,53,0.0,14.0,65,0.00,,,0.00,Wunderground v.1.13,2013-07-05 06:05:00,
2013-07-05 00:15:00,63.9,51.9,29.56,NE,53,0.0,14.0,65,0.00,,,0.00,Wunderground v.1.13,2013-07-05 06:15:00,
2013-07-05 00:20:00,63.9,51.9,29.56,NE,53,0.0,14.0,65,0.00,,,0.00,Wunderground v.1.13,2013-07-05 06:20:00,
2013-07-05 00:25:00,63.7,52.1,29.56,NE,53,0.0,14.0,66,0.00,,,0.00,Wunderground v.1.13,2013-07-05 06:25:00,
2013-07-05 00:30:00,63.5,51.9,29.56,NE,53,0.0,14.0,66,0.00,,,0.00,Wunderground v.1.13,2013-07-05 06:30:00,
2013-07-05 00:35:00,63.4,52.2,29.56,NE,53,0.0,14.0,67,0.00,,,0.00,Wunderground v.1.13,2013-07-05 06:35:00,
2013-07-05 00:40:00,63.1,52.0,29.56,NE,53,0.0,14.0,67,0.00,,,0.00,Wunderground v.1.13,2013-07-05 06:40:00,
2013-07-05 00:45:00,62.9,52.2,29.56,NE,53,0.0,14.0,68,0.00,,,0.00,Wunderground v.1.13,2013-07-05 06:45:00,
2013-07-05 00:50:00,62.7,52.0,29.55,NE,53,0.0,14.0,68,0.00,,,0.00,Wunderground v.1.13,2013-07-05 06:50:00,
2013-07-05 00:55:00,62.4,52.1,29.55,NE,53,0.0,14.0,69,0.00,,,0.00,Wunderground v.1.13,2013-07-05 06:55:00,
2013-07-05 01:00:00,62.3,52.4,29.55,NE,53,0.0,14.0,70,0.00,,,0.00,Wunderground v.1.13,2013-07-05 07:00:00,
2013-07-05 01:05:00,62.0,52.1,29.55,NE,53,0.0,14.0,70,0.00,,,0.00,Wunderground v.1.13,2013-07-05 07:05:00,
2013-07-05 01:10:00,61.6,51.7,29.55,NE,53,0.0,14.0,70,0.00,,,0.00,Wunderground v.1.13,2013-07-05 07:10:00,
2013-07-05 01:15:00,61.5,52.0,29.55,NE,53,0.0,14.0,71,0.00,,,0.00,Wunderground v.1.13,2013-07-05 07:15:00,
2013-07-05 01:20:00,61.5,52.0,29.55,NE,53,0.0,14.0,71,0.00,,,0.00,Wunderground v.1.13,2013-07-05 07:20:00,
2013-07-05 01:25:00,61.2,52.1,29.55,NE,53,0.0,14.0,72,0.00,,,0.00,Wunderground v.1.13,2013-07-05 07:25:00,
2013-07-05 01:30:00,61.0,51.9,29.55,NE,53,0.0,14.0,72,0.00,,,0.00,Wunderground v.1.13,2013-07-05 07:30:00,
2013-07-05 01:35:00,60.7,52.0,29.55,NE,53,0.0,14.0,73,0.00,,,0.00,Wunderground v.1.13,2013-07-05 07:35:00,
2013-07-05 01:40:00,60.5,52.2,29.55,NE,53,0.0,14.0,74,0.00,,,0.00,Wunderground v.1.13,2013-07-05 07:40:00,
2013-07-05 01:45:00,60.4,52.1,29.55,NE,53,0.0,14.0,74,0.00,,,0.00,Wunderground v.1.13,2013-07-05 07:45:00,
2013-07-05 01:50:00,60.4,52.4,29.55,NE,53,0.0,14.0,75,0.00,,,0.00,Wunderground v.1.13,2013-07-05 07:50:00,
2013-07-05 01:55:00,60.4,52.4,29.55,NE,53,0.0,14.0,75,0.00,,,0.00,Wunderground v.1.13,2013-07-05 07:55:00,
2013-07-05 02:00:00,60.2,52.6,29.55,NE,53,0.0,14.0,76,0.00,,,0.00,Wunderground v.1.13,2013-07-05 08:00:00,
2013-07-05 02:05:00,60.2,52.6,29.55,NE,53,0.0,14.0,76,0.00,,,0.00,Wunderground v.1.13,2013-07-05 08:05:00,
2013-07-05 02:10:00,60.1,52.5,29.55,NE,53,0.0,14.0,76,0.00,,,0.00,Wunderground v.1.13,2013-07-05 08:10:00,
2013-07-05 02:15:00,59.9,52.7,29.55,NE,53,0.0,14.0,77,0.00,,,0.00,Wunderground v.1.13,2013-07-05 08:15:00,
2013-07-05 02:20:00,59.8,52.6,29.55,NE,53,0.0,14.0,77,0.00,,,0.00,Wunderground v.1.13,2013-07-05 08:20:00,
2013-07-05 02:25:00,59.6,52.7,29.55,NE,53,0.0,14.0,78,0.00,,,0.00,Wunderground v.1.13,2013-07-05 08:25:00,
2013-07-05 02:30:00,59.5,52.3,29.55,NE,53,0.0,14.0,77,0.00,,,0.00,Wunderground v.1.13,2013-07-05 08:30:00,
2013-07-05 02:35:00,59.5,52.3,29.54,NE,53,0.0,14.0,77,0.00,,,0.00,Wunderground v.1.13,2013-07-05 08:35:00,
2013-07-05 02:40:00,59.5,52.3,29.54,NE,53,0.0,14.0,77,0.00,,,0.00,Wunderground v.1.13,2013-07-05 08:40:00,
2013-07-05 02:50:00,59.2,52.0,29.54,NE,53,0.0,14.0,77,0.00,,,0.00,Wunderground v.1.13,2013-07-05 08:50:00,
2013-07-05 02:55:00,59.2,52.3,29.54,NE,53,0.0,14.0,78,0.00,,,0.00,Wunderground v.1.13,2013-07-05 08:55:00,
2013-07-05 03:05:00,59.5,52.3,29.53,NE,53,0.0,14.0,77,0.00,,,0.00,Wunderground v.1.13,2013-07-05 09:05:00,
2013-07-05 03:15:00,59.3,51.7,29.53,NE,53,0.0,14.0,76,0.00,,,0.00,Wunderground v.1.13,2013-07-05 09:15:00,
2013-07-05 03:20:00,59.3,51.7,29.53,NE,53,0.0,14.0,76,0.00,,,0.00,Wunderground v.1.13,2013-07-05 09:20:00,
2013-07-05 03:25:00,59.2,51.3,29.53,NE,53,0.0,14.0,75,0.00,,,0.00,Wunderground v.1.13,2013-07-05 09:25:00,
2013-07-05 03:30:00,59.2,51.3,29.53,NE,53,0.0,14.0,75,0.00,,,0.00,Wunderground v.1.13,2013-07-05 09:30:00,
2013-07-05 03:35:00,59.3,51.4,29.53,NE,53,0.0,14.0,75,0.00,,,0.00,Wunderground v.1.13,2013-07-05 09:35:00,
2013-07-05 03:45:00,59.5,51.6,29.53,NE,53,0.0,14.0,75,0.00,,,0.00,Wunderground v.1.13,2013-07-05 09:45:00,
2013-07-05 03:50:00,59.8,52.2,29.53,NE,53,0.0,14.0,76,0.00,,,0.00,Wunderground v.1.13,2013-07-05 09:50:00,
2013-07-05 03:55:00,59.9,52.0,29.53,NE,53,0.0,14.0,75,0.00,,,0.00,Wunderground v.1.13,2013-07-05 09:55:00,
2013-07-05 04:00:00,59.9,52.0,29.53,NE,53,0.0,14.0,75,0.00,,,0.00,Wunderground v.1.13,2013-07-05 10:00:00,
2013-07-05 04:10:00,59.9,52.0,29.53,NE,53,0.0,14.0,75,0.00,,,0.00,Wunderground v.1.13,2013-07-05 10:10:00,
2013-07-05 04:15:00,59.9,52.3,29.53,NE,53,0.0,14.0,76,0.00,,,0.00,Wunderground v.1.13,2013-07-05 10:15:00,
2013-07-05 04:20:00,60.1,52.5,29.53,NE,53,0.0,14.0,76,0.00,,,0.00,Wunderground v.1.13,2013-07-05 10:20:00,
2013-07-05 04:25:00,60.1,52.5,29.53,NE,53,0.0,14.0,76,0.00,,,0.00,Wunderground v.1.13,2013-07-05 10:25:00,
2013-07-05 04:35:00,59.9,52.3,29.53,NE,53,0.0,14.0,76,0.00,,,0.00,Wunderground v.1.13,2013-07-05 10:35:00,
2013-07-05 04:50:00,59.6,52.0,29.53,NE,53,0.0,14.0,76,0.00,,,0.00,Wunderground v.1.13,2013-07-05 10:50:00,
2013-07-05 04:55:00,59.6,52.0,29.53,NE,53,0.0,14.0,76,0.00,,,0.00,Wunderground v.1.13,2013-07-05 10:55:00,
2013-07-05 05:05:00,59.3,51.7,29.53,NE,53,0.0,14.0,76,0.00,,,0.00,Wunderground v.1.13,2013-07-05 11:05:00,
2013-07-05 05:20:00,59.3,51.7,29.53,NE,53,0.0,14.0,76,0.00,,,0.00,Wunderground v.1.13,2013-07-05 11:20:00,
2013-07-05 05:25:00,59.3,51.7,29.53,NE,53,0.0,14.0,76,0.00,,,0.00,Wunderground v.1.13,2013-07-05 11:25:00,
2013-07-05 05:35:00,59.0,51.4,29.53,NE,53,0.0,14.0,76,0.00,,,0.00,Wunderground v.1.13,2013-07-05 11:35:00,
2013-07-05 05:45:00,58.9,51.3,29.53,NE,53,0.0,14.0,76,0.00,,,0.00,Wunderground v.1.13,2013-07-05 11:45:00,
2013-07-05 05:50:00,58.7,51.2,29.53,NE,53,0.0,14.0,76,0.00,,,0.00,Wunderground v.1.13,2013-07-05 11:50:00,
2013-07-05 05:55:00,58.7,51.5,29.53,NE,53,0.0,14.0,77,0.00,,,0.00,Wunderground v.1.13,2013-07-05 11:55:00,
2013-07-05 06:05:00,59.3,51.4,29.53,NE,53,0.0,14.0,75,0.00,,,0.00,Wunderground v.1.13,2013-07-05 12:05:00,
2013-07-05 06:10:00,59.5,51.2,29.53,NE,53,0.0,14.0,74,0.00,,,0.00,Wunderground v.1.13,2013-07-05 12:10:00,
2013-07-05 06:15:00,59.6,51.3,29.53,NE,53,0.0,14.0,74,0.00,,,0.00,Wunderground v.1.13,2013-07-05 12:15:00,
2013-07-05 06:20:00,59.9,51.2,29.53,NE,53,0.0,14.0,73,0.00,,,0.00,Wunderground v.1.13,2013-07-05 12:20:00,
2013-07-05 06:30:00,60.2,51.5,29.53,NE,53,0.0,14.0,73,0.00,,,0.00,Wunderground v.1.13,2013-07-05 12:30:00,
2013-07-05 06:40:00,61.3,51.4,29.54,NE,53,0.0,14.0,70,0.00,,,0.00,Wunderground v.1.13,2013-07-05 12:40:00,
2013-07-05 06:45:00,62.0,51.7,29.54,NE,53,0.0,14.0,69,0.00,,,0.00,Wunderground v.1.13,2013-07-05 12:45:00,
2013-07-05 06:50:00,62.6,52.3,29.55,NE,53,0.0,14.0,69,0.00,,,0.00,Wunderground v.1.13,2013-07-05 12:50:00,
2013-07-05 06:55:00,63.5,52.7,29.55,NE,53,0.0,14.0,68,0.00,,,0.00,Wunderground v.1.13,2013-07-05 12:55:00,
2013-07-05 07:00:00,65.2,53.6,29.55,NE,53,0.0,14.0,66,0.00,,,0.00,Wunderground v.1.13,2013-07-05 13:00:00,
2013-07-05 07:05:00,66.4,52.5,29.54,NE,53,0.0,14.0,61,0.00,,,0.00,Wunderground v.1.13,2013-07-05 13:05:00,
2013-07-05 07:10:00,67.3,52.0,29.54,NE,53,0.0,14.0,58,0.00,,,0.00,Wunderground v.1.13,2013-07-05 13:10:00,
2013-07-05 07:15:00,67.9,52.6,29.54,NE,53,0.0,14.0,58,0.00,,,0.00,Wunderground v.1.13,2013-07-05 13:15:00,
2013-07-05 07:20:00,68.6,52.8,29.53,NE,56,0.0,14.0,57,0.00,,,0.00,Wunderground v.1.13,2013-07-05 13:20:00,
2013-07-05 07:30:00,68.9,52.6,29.53,ESE,120,0.0,14.0,56,0.00,,,0.00,Wunderground v.1.13,2013-07-05 13:30:00,
2013-07-05 07:35:00,68.9,52.6,29.53,ESE,121,0.0,14.0,56,0.00,,,0.00,Wunderground v.1.13,2013-07-05 13:35:00,
2013-07-05 07:40:00,69.1,52.2,29.53,ESE,121,0.0,14.0,55,0.00,,,0.00,Wunderground v.1.13,2013-07-05 13:40:00,
2013-07-05 07:45:00,69.3,51.9,29.53,SE,138,0.0,14.0,54,0.00,,,0.00,Wunderground v.1.13,2013-07-05 13:45:00,
2013-07-05 07:55:00,69.8,52.9,29.54,SE,138,0.0,14.0,55,0.00,,,0.00,Wunderground v.1.13,2013-07-05 13:55:00,
2013-07-05 08:00:00,70.1,52.7,29.54,SE,136,0.0,14.0,54,0.00,,,0.00,Wunderground v.1.13,2013-07-05 14:00:00,
2013-07-05 08:05:00,70.4,53.0,29.53,SE,137,0.0,14.0,54,0.00,,,0.00,Wunderground v.1.13,2013-07-05 14:05:00,
2013-07-05 08:25:00,71.5,53.5,29.54,SE,137,0.0,14.0,53,0.00,,,0.00,Wunderground v.1.13,2013-07-05 14:25:00,
2013-07-05 08:30:00,72.0,53.9,29.54,SE,142,0.0,14.0,53,0.00,,,0.00,Wunderground v.1.13,2013-07-05 14:30:00,
2013-07-05 08:35:00,72.5,53.9,29.53,SE,142,0.0,14.0,52,0.00,,,0.00,Wunderground v.1.13,2013-07-05 14:35:00,
2013-07-05 08:45:00,73.3,54.6,29.53,SE,146,0.0,14.0,52,0.00,,,0.00,Wunderground v.1.13,2013-07-05 14:45:00,
2013-07-05 08:55:00,74.4,54.5,29.53,SE,146,0.0,14.0,50,0.00,,,0.00,Wunderground v.1.13,2013-07-05 14:55:00,
2013-07-05 09:00:00,75.1,54.1,29.53,SSE,148,0.0,14.0,48,0.00,,,0.00,Wunderground v.1.13,2013-07-05 15:00:00,
2013-07-05 09:05:00,75.8,55.3,29.52,SE,146,0.0,14.0,49,0.00,,,0.00,Wunderground v.1.13,2013-07-05 15:05:00,
2013-07-05 09:15:00,77.2,54.8,29.52,SE,127,0.0,14.0,46,0.00,,,0.00,Wunderground v.1.13,2013-07-05 15:15:00,
2013-07-05 09:20:00,77.6,54.6,29.52,SE,132,0.0,14.0,45,0.00,,,0.00,Wunderground v.1.13,2013-07-05 15:20:00,
2013-07-05 09:25:00,78.1,55.0,29.52,ESE,121,0.0,14.0,45,0.00,,,0.00,Wunderground v.1.13,2013-07-05 15:25:00,
2013-07-05 09:35:00,79.4,55.6,29.51,ENE,74,0.0,14.0,44,0.00,,,0.00,Wunderground v.1.13,2013-07-05 15:35:00,
2013-07-05 09:40:00,79.8,55.3,29.51,SE,136,0.0,14.0,43,0.00,,,0.00,Wunderground v.1.13,2013-07-05 15:40:00,
2013-07-05 09:45:00,79.4,55.6,29.51,SE,135,0.0,14.0,44,0.00,,,0.00,Wunderground v.1.13,2013-07-05 15:45:00,
2013-07-05 09:50:00,79.8,54.7,29.51,SE,132,0.0,14.0,42,0.00,,,0.00,Wunderground v.1.13,2013-07-05 15:50:00,
2013-07-05 09:55:00,80.1,54.3,29.51,SSE,167,0.0,14.0,41,0.00,,,0.00,Wunderground v.1.13,2013-07-05 15:55:00,
2013-07-05 10:00:00,80.1,54.9,29.51,SSE,167,0.0,14.0,42,0.00,,,0.00,Wunderground v.1.13,2013-07-05 16:00:00,
2013-07-05 10:05:00,80.5,54.6,29.51,SSE,166,0.0,14.0,41,0.00,,,0.00,Wunderground v.1.13,2013-07-05 16:05:00,
2013-07-05 10:10:00,81.1,54.5,29.51,SE,137,0.0,14.0,40,0.00,,,0.00,Wunderground v.1.13,2013-07-05 16:10:00,
2013-07-05 10:15:00,81.1,55.8,29.51,SE,146,0.0,14.0,42,0.00,,,0.00,Wunderground v.1.13,2013-07-05 16:15:00,
2013-07-05 10:20:00,81.6,56.3,29.51,ESE,121,0.0,14.0,42,0.00,,,0.00,Wunderground v.1.13,2013-07-05 16:20:00,
2013-07-05 10:25:00,82.4,55.7,29.51,ENE,63,0.0,14.0,40,0.00,,,0.00,Wunderground v.1.13,2013-07-05 16:25:00,
2013-07-05 10:30:00,82.4,56.3,29.51,SE,146,0.0,14.0,41,0.00,,,0.00,Wunderground v.1.13,2013-07-05 16:30:00,
2013-07-05 10:35:00,83.0,55.5,29.51,ESE,113,0.0,14.0,39,0.00,,,0.00,Wunderground v.1.13,2013-07-05 16:35:00,
2013-07-05 10:40:00,83.2,55.0,29.51,SE,145,0.0,14.0,38,0.00,,,0.00,Wunderground v.1.13,2013-07-05 16:40:00,
2013-07-05 10:45:00,83.0,55.5,29.51,East,96,0.0,14.0,39,0.00,,,0.00,Wunderground v.1.13,2013-07-05 16:45:00,
2013-07-05 10:50:00,82.6,55.8,29.51,ESE,117,0.0,14.0,40,0.00,,,0.00,Wunderground v.1.13,2013-07-05 16:50:00,
2013-07-05 10:55:00,83.0,56.2,29.51,SE,143,0.0,14.0,40,0.00,,,0.00,Wunderground v.1.13,2013-07-05 16:55:00,
2013-07-05 11:00:00,83.8,56.9,29.51,SSE,150,0.0,14.0,40,0.00,,,0.00,Wunderground v.1.13,2013-07-05 17:00:00,
2013-07-05 11:05:00,84.5,57.5,29.50,SE,142,1.0,1.0,40,0.00,,,0.00,Wunderground v.1.13,2013-07-05 17:05:00,
2013-07-05 11:15:00,84.7,56.3,29.50,East,94,1.0,14.0,38,0.00,,,0.00,Wunderground v.1.13,2013-07-05 17:15:00,
2013-07-05 11:25:00,85.1,56.6,29.50,SSE,157,0.0,14.0,38,0.00,,,0.00,Wunderground v.1.13,2013-07-05 17:25:00,
2013-07-05 11:35:00,85.5,55.5,29.50,SE,138,0.0,14.0,36,0.00,,,0.00,Wunderground v.1.13,2013-07-05 17:35:00,
2013-07-05 11:40:00,85.3,56.1,29.50,SSE,149,1.0,1.0,37,0.00,,,0.00,Wunderground v.1.13,2013-07-05 17:40:00,
2013-07-05 11:50:00,84.9,56.5,29.49,SE,135,1.0,14.0,38,0.00,,,0.00,Wunderground v.1.13,2013-07-05 17:50:00,
2013-07-05 11:55:00,84.9,55.7,29.49,SE,139,0.0,14.0,37,0.00,,,0.00,Wunderground v.1.13,2013-07-05 17:55:00,
2013-07-05 12:00:00,85.1,56.6,29.49,SSE,149,1.0,1.0,38,0.00,,,0.00,Wunderground v.1.13,2013-07-05 18:00:00,
2013-07-05 12:05:00,85.3,56.8,29.48,ESE,123,0.0,14.0,38,0.00,,,0.00,Wunderground v.1.13,2013-07-05 18:05:00,
2013-07-05 12:15:00,85.5,57.0,29.48,SSE,148,2.0,2.0,38,0.00,,,0.00,Wunderground v.1.13,2013-07-05 18:15:00,
2013-07-05 12:20:00,85.7,56.4,29.49,South,169,1.0,1.0,37,0.00,,,0.00,Wunderground v.1.13,2013-07-05 18:20:00,
2013-07-05 12:25:00,85.5,55.5,29.49,SE,144,1.0,1.0,36,0.00,,,0.00,Wunderground v.1.13,2013-07-05 18:25:00,
2013-07-05 12:30:00,85.3,56.1,29.49,SE,146,2.0,2.0,37,0.00,,,0.00,Wunderground v.1.13,2013-07-05 18:30:00,
2013-07-05 12:35:00,85.7,55.7,29.49,SSE,159,1.0,1.0,36,0.00,,,0.00,Wunderground v.1.13,2013-07-05 18:35:00,
2013-07-05 12:40:00,86.1,56.0,29.49,SSE,149,1.0,1.0,36,0.00,,,0.00,Wunderground v.1.13,2013-07-05 18:40:00,
2013-07-05 12:45:00,86.1,55.2,29.49,SE,130,1.0,1.0,35,0.00,,,0.00,Wunderground v.1.13,2013-07-05 18:45:00,
2013-07-05 12:50:00,86.1,55.2,29.48,SSE,159,1.0,14.0,35,0.00,,,0.00,Wunderground v.1.13,2013-07-05 18:50:00,
2013-07-05 12:55:00,85.9,55.1,29.48,SSE,160,1.0,1.0,35,0.00,,,0.00,Wunderground v.1.13,2013-07-05 18:55:00,
2013-07-05 13:00:00,85.7,56.4,29.48,SE,137,1.0,14.0,37,0.00,,,0.00,Wunderground v.1.13,2013-07-05 19:00:00,
2013-07-05 13:05:00,85.5,54.7,29.48,SSE,148,1.0,1.0,35,0.00,,,0.00,Wunderground v.1.13,2013-07-05 19:05:00,
2013-07-05 13:10:00,85.7,54.9,29.48,SSE,152,1.0,1.0,35,0.00,,,0.00,Wunderground v.1.13,2013-07-05 19:10:00,
2013-07-05 13:15:00,86.1,55.2,29.48,SSE,164,1.0,1.0,35,0.00,,,0.00,Wunderground v.1.13,2013-07-05 19:15:00,
2013-07-05 13:20:00,86.1,53.6,29.48,South,169,0.0,14.0,33,0.00,,,0.00,Wunderground v.1.13,2013-07-05 19:20:00,
2013-07-05 13:25:00,86.3,54.6,29.48,SE,142,0.0,14.0,34,0.00,,,0.00,Wunderground v.1.13,2013-07-05 19:25:00,
2013-07-05 13:35:00,87.0,56.0,29.47,SE,140,0.0,14.0,35,0.00,,,0.00,Wunderground v.1.13,2013-07-05 19:35:00,
2013-07-05 13:40:00,87.2,55.4,29.47,SE,140,0.0,14.0,34,0.00,,,0.00,Wunderground v.1.13,2013-07-05 19:40:00,
2013-07-05 13:45:00,87.2,56.2,29.47,SE,138,0.0,14.0,35,0.00,,,0.00,Wunderground v.1.13,2013-07-05 19:45:00,
2013-07-05 13:55:00,87.2,56.2,29.47,ESE,111,0.0,14.0,35,0.00,,,0.00,Wunderground v.1.13,2013-07-05 19:55:00,
2013-07-05 14:05:00,87.6,54.1,29.47,SSE,153,0.0,14.0,32,0.00,,,0.00,Wunderground v.1.13,2013-07-05 20:05:00,
2013-07-05 14:15:00,88.0,55.3,29.47,SSE,162,0.0,14.0,33,0.00,,,0.00,Wunderground v.1.13,2013-07-05 20:15:00,
2013-07-05 14:20:00,88.0,56.1,29.47,SSE,163,0.0,14.0,34,0.00,,,0.00,Wunderground v.1.13,2013-07-05 20:20:00,
2013-07-05 14:25:00,88.0,55.3,29.47,SSE,161,0.0,14.0,33,0.00,,,0.00,Wunderground v.1.13,2013-07-05 20:25:00,
2013-07-05 14:30:00,88.0,55.3,29.47,SSE,161,0.0,14.0,33,0.00,,,0.00,Wunderground v.1.13,2013-07-05 20:30:00,
2013-07-05 14:35:00,87.8,55.1,29.46,SSE,161,0.0,14.0,33,0.00,,,0.00,Wunderground v.1.13,2013-07-05 20:35:00,
2013-07-05 14:40:00,87.8,55.1,29.46,SSE,157,0.0,14.0,33,0.00,,,0.00,Wunderground v.1.13,2013-07-05 20:40:00,
2013-07-05 14:45:00,87.8,55.9,29.46,SSE,157,0.0,14.0,34,0.00,,,0.00,Wunderground v.1.13,2013-07-05 20:45:00,
2013-07-05 14:50:00,87.8,55.1,29.46,SSE,157,0.0,14.0,33,0.00,,,0.00,Wunderground v.1.13,2013-07-05 20:50:00,
2013-07-05 14:55:00,88.0,55.3,29.46,SSE,157,0.0,14.0,33,0.00,,,0.00,Wunderground v.1.13,2013-07-05 20:55:00,
2013-07-05 15:00:00,88.2,57.1,29.46,SSE,157,0.0,14.0,35,0.00,,,0.00,Wunderground v.1.13,2013-07-05 21:00:00,
2013-07-05 15:05:00,88.4,56.5,29.45,SSE,157,0.0,14.0,34,0.00,,,0.00,Wunderground v.1.13,2013-07-05 21:05:00,
2013-07-05 15:10:00,88.2,56.3,29.45,SSE,150,0.0,14.0,34,0.00,,,0.00,Wunderground v.1.13,2013-07-05 21:10:00,
2013-07-05 15:15:00,88.2,56.3,29.45,SSE,150,0.0,14.0,34,0.00,,,0.00,Wunderground v.1.13,2013-07-05 21:15:00,
2013-07-05 15:20:00,88.0,56.1,29.45,SE,141,1.0,1.0,34,0.00,,,0.00,Wunderground v.1.13,2013-07-05 21:20:00,
2013-07-05 15:25:00,88.0,55.3,29.45,SE,142,1.0,1.0,33,0.00,,,0.00,Wunderground v.1.13,2013-07-05 21:25:00,
2013-07-05 15:30:00,88.4,55.6,29.45,SSE,151,1.0,1.0,33,0.00,,,0.00,Wunderground v.1.13,2013-07-05 21:30:00,
2013-07-05 15:35:00,88.6,55.0,29.44,SE,133,1.0,1.0,32,0.00,,,0.00,Wunderground v.1.13,2013-07-05 21:35:00,
2013-07-05 15:40:00,88.6,55.8,29.44,SSE,148,1.0,1.0,33,0.00,,,0.00,Wunderground v.1.13,2013-07-05 21:40:00,
2013-07-05 15:45:00,88.8,55.1,29.44,SE,134,1.0,1.0,32,0.00,,,0.00,Wunderground v.1.13,2013-07-05 21:45:00,
2013-07-05 15:50:00,89.0,57.0,29.44,SE,134,0.0,14.0,34,0.00,,,0.00,Wunderground v.1.13,2013-07-05 21:50:00,
2013-07-05 15:55:00,89.5,55.7,29.44,SSE,151,0.0,14.0,32,0.00,,,0.00,Wunderground v.1.13,2013-07-05 21:55:00,
2013-07-05 16:00:00,89.5,55.7,29.44,SE,138,0.0,14.0,32,0.00,,,0.00,Wunderground v.1.13,2013-07-05 22:00:00,
2013-07-05 16:05:00,89.7,54.1,29.43,SE,134,1.0,1.0,30,0.00,,,0.00,Wunderground v.1.13,2013-07-05 22:05:00,
2013-07-05 16:15:00,89.9,54.3,29.43,SE,135,1.0,14.0,30,0.00,,,0.00,Wunderground v.1.13,2013-07-05 22:15:00,
2013-07-05 16:20:00,89.7,54.1,29.43,SE,145,1.0,1.0,30,0.00,,,0.00,Wunderground v.1.13,2013-07-05 22:20:00,
2013-07-05 16:25:00,89.7,53.2,29.43,SE,146,2.0,2.0,29,0.00,,,0.00,Wunderground v.1.13,2013-07-05 22:25:00,
2013-07-05 16:30:00,89.7,53.2,29.43,SSE,149,2.0,2.0,29,0.00,,,0.00,Wunderground v.1.13,2013-07-05 22:30:00,
2013-07-05 16:35:00,89.7,54.1,29.42,SSE,152,1.0,14.0,30,0.00,,,0.00,Wunderground v.1.13,2013-07-05 22:35:00,
2013-07-05 16:40:00,89.5,54.9,29.42,SE,144,1.0,1.0,31,0.00,,,0.00,Wunderground v.1.13,2013-07-05 22:40:00,
2013-07-05 16:45:00,89.5,53.0,29.42,SE,136,1.0,1.0,29,0.00,,,0.00,Wunderground v.1.13,2013-07-05 22:45:00,
2013-07-05 16:50:00,89.5,54.0,29.42,SE,128,1.0,1.0,30,0.00,,,0.00,Wunderground v.1.13,2013-07-05 22:50:00,
2013-07-05 16:55:00,89.3,52.9,29.42,SE,140,1.0,14.0,29,0.00,,,0.00,Wunderground v.1.13,2013-07-05 22:55:00,
2013-07-05 17:00:00,89.3,52.9,29.42,SE,141,2.0,2.0,29,0.00,,,0.00,Wunderground v.1.13,2013-07-05 23:00:00,
2013-07-05 17:05:00,89.3,54.7,29.41,SE,140,1.0,1.0,31,0.00,,,0.00,Wunderground v.1.13,2013-07-05 23:05:00,
2013-07-05 17:10:00,89.0,56.2,29.41,SE,142,0.0,14.0,33,0.00,,,0.00,Wunderground v.1.13,2013-07-05 23:10:00,
2013-07-05 17:15:00,89.0,55.3,29.41,ESE,111,1.0,1.0,32,0.00,,,0.00,Wunderground v.1.13,2013-07-05 23:15:00,
2013-07-05 17:20:00,88.8,54.3,29.41,SE,144,1.0,1.0,31,0.00,,,0.00,Wunderground v.1.13,2013-07-05 23:20:00,
2013-07-05 17:25:00,88.8,54.3,29.41,ESE,122,1.0,1.0,31,0.00,,,0.00,Wunderground v.1.13,2013-07-05 23:25:00,
2013-07-05 17:30:00,88.8,54.3,29.41,SE,139,1.0,1.0,31,0.00,,,0.00,Wunderground v.1.13,2013-07-05 23:30:00,
2013-07-05 17:35:00,88.8,53.4,29.41,SE,138,1.0,1.0,30,0.00,,,0.00,Wunderground v.1.13,2013-07-05 23:35:00,
2013-07-05 17:40:00,88.8,53.4,29.41,SE,145,2.0,2.0,30,0.00,,,0.00,Wunderground v.1.13,2013-07-05 23:40:00,
2013-07-05 17:50:00,89.0,52.6,29.41,SE,146,3.0,3.0,29,0.00,,,0.00,Wunderground v.1.13,2013-07-05 23:50:00,
2013-07-05 17:55:00,89.7,52.3,29.41,SSE,154,2.0,14.0,28,0.00,,,0.00,Wunderground v.1.13,2013-07-05 23:55:00,
2013-07-05 18:00:00,90.1,52.6,29.41,SSE,160,3.0,3.0,28,0.00,,,0.00,Wunderground v.1.13,2013-07-06 00:00:00,
2013-07-05 18:05:00,90.3,53.7,29.41,SSE,149,2.0,2.0,29,0.00,,,0.00,Wunderground v.1.13,2013-07-06 00:05:00,
2013-07-05 18:10:00,90.3,51.8,29.41,SSE,153,2.0,14.0,27,0.00,,,0.00,Wunderground v.1.13,2013-07-06 00:10:00,
2013-07-05 18:15:00,90.3,52.8,29.41,SE,138,3.0,3.0,28,0.00,,,0.00,Wunderground v.1.13,2013-07-06 00:15:00,
2013-07-05 18:20:00,90.3,52.8,29.41,SSE,147,2.0,2.0,28,0.00,,,0.00,Wunderground v.1.13,2013-07-06 00:20:00,
2013-07-05 18:30:00,89.7,53.2,29.41,SSE,157,1.0,1.0,29,0.00,,,0.00,Wunderground v.1.13,2013-07-06 00:30:00,
2013-07-05 18:35:00,89.0,53.5,29.42,SSE,155,1.0,1.0,30,0.00,,,0.00,Wunderground v.1.13,2013-07-06 00:35:00,
2013-07-05 18:45:00,88.2,52.9,29.42,SE,134,1.0,14.0,30,0.00,,,0.00,Wunderground v.1.13,2013-07-06 00:45:00,
2013-07-05 18:50:00,87.8,52.5,29.42,SE,144,1.0,14.0,30,0.00,,,0.00,Wunderground v.1.13,2013-07-06 00:50:00,
2013-07-05 18:55:00,87.6,53.2,29.42,South,188,1.0,1.0,31,0.00,,,0.00,Wunderground v.1.13,2013-07-06 00:55:00,
2013-07-05 19:00:00,87.2,52.9,29.42,SSE,147,1.0,1.0,31,0.00,,,0.00,Wunderground v.1.13,2013-07-06 01:00:00,
2013-07-05 19:05:00,86.7,53.3,29.42,SE,146,0.0,14.0,32,0.00,,,0.00,Wunderground v.1.13,2013-07-06 01:05:00,
2013-07-05 19:15:00,85.9,53.5,29.42,SSE,162,1.0,1.0,33,0.00,,,0.00,Wunderground v.1.13,2013-07-06 01:15:00,
2013-07-05 19:20:00,85.5,53.1,29.43,SSE,149,1.0,1.0,33,0.00,,,0.00,Wunderground v.1.13,2013-07-06 01:20:00,
2013-07-05 19:25:00,85.3,52.9,29.43,SSE,156,0.0,14.0,33,0.00,,,0.00,Wunderground v.1.13,2013-07-06 01:25:00,
2013-07-05 19:30:00,85.1,52.8,29.43,SE,128,1.0,1.0,33,0.00,,,0.00,Wunderground v.1.13,2013-07-06 01:30:00,
2013-07-05 19:35:00,84.9,52.6,29.43,SE,143,1.0,1.0,33,0.00,,,0.00,Wunderground v.1.13,2013-07-06 01:35:00,
2013-07-05 19:40:00,84.5,52.2,29.43,SE,142,1.0,14.0,33,0.00,,,0.00,Wunderground v.1.13,2013-07-06 01:40:00,
2013-07-05 19:45:00,84.5,52.2,29.43,SE,142,0.0,14.0,33,0.00,,,0.00,Wunderground v.1.13,2013-07-06 01:45:00,
2013-07-05 19:50:00,84.1,51.9,29.43,SE,142,0.0,14.0,33,0.00,,,0.00,Wunderground v.1.13,2013-07-06 01:50:00,
2013-07-05 19:55:00,84.0,52.6,29.43,SE,141,0.0,14.0,34,0.00,,,0.00,Wunderground v.1.13,2013-07-06 01:55:00,
2013-07-05 20:05:00,83.0,53.3,29.43,ESE,120,0.0,14.0,36,0.00,,,0.00,Wunderground v.1.13,2013-07-06 02:05:00,
2013-07-05 20:10:00,82.4,52.8,29.43,East,94,0.0,14.0,36,0.00,,,0.00,Wunderground v.1.13,2013-07-06 02:10:00,
2013-07-05 20:15:00,82.2,53.3,29.43,East,94,0.0,14.0,37,0.00,,,0.00,Wunderground v.1.13,2013-07-06 02:15:00,
2013-07-05 20:20:00,82.0,53.2,29.43,East,94,0.0,14.0,37,0.00,,,0.00,Wunderground v.1.13,2013-07-06 02:20:00,
2013-07-05 20:25:00,81.6,53.5,29.43,East,94,0.0,14.0,38,0.00,,,0.00,Wunderground v.1.13,2013-07-06 02:25:00,
2013-07-05 20:30:00,81.2,53.9,29.43,East,94,0.0,14.0,39,0.00,,,0.00,Wunderground v.1.13,2013-07-06 02:30:00,
2013-07-05 20:35:00,80.9,53.6,29.42,East,94,0.0,14.0,39,0.00,,,0.00,Wunderground v.1.13,2013-07-06 02:35:00,
2013-07-05 20:40:00,80.7,52.7,29.42,SSE,163,0.0,14.0,38,0.00,,,0.00,Wunderground v.1.13,2013-07-06 02:40:00,
2013-07-05 20:45:00,81.1,53.1,29.42,SSE,153,0.0,14.0,38,0.00,,,0.00,Wunderground v.1.13,2013-07-06 02:45:00,
2013-07-05 20:50:00,81.2,53.2,29.42,SE,139,1.0,1.0,38,0.00,,,0.00,Wunderground v.1.13,2013-07-06 02:50:00,
2013-07-05 20:55:00,81.2,53.2,29.42,SSE,150,0.0,14.0,38,0.00,,,0.00,Wunderground v.1.13,2013-07-06 02:55:00,
2013-07-05 21:00:00,81.4,53.4,29.42,South,176,1.0,1.0,38,0.00,,,0.00,Wunderground v.1.13,2013-07-06 03:00:00,
2013-07-05 21:05:00,81.2,53.2,29.42,South,181,1.0,1.0,38,0.00,,,0.00,Wunderground v.1.13,2013-07-06 03:05:00,
2013-07-05 21:10:00,81.4,53.4,29.42,SSE,153,1.0,1.0,38,0.00,,,0.00,Wunderground v.1.13,2013-07-06 03:10:00,
2013-07-05 21:20:00,81.4,54.1,29.42,SE,144,3.0,3.0,39,0.00,,,0.00,Wunderground v.1.13,2013-07-06 03:20:00,
2013-07-05 21:25:00,81.4,54.1,29.42,SSE,163,3.0,3.0,39,0.00,,,0.00,Wunderground v.1.13,2013-07-06 03:25:00,
2013-07-05 21:30:00,81.2,53.9,29.42,SSE,161,4.0,4.0,39,0.00,,,0.00,Wunderground v.1.13,2013-07-06 03:30:00,
2013-07-05 21:35:00,81.1,53.8,29.43,SSE,166,2.0,2.0,39,0.00,,,0.00,Wunderground v.1.13,2013-07-06 03:35:00,
2013-07-05 21:40:00,81.1,53.8,29.43,SE,134,1.0,1.0,39,0.00,,,0.00,Wunderground v.1.13,2013-07-06 03:40:00,
2013-07-05 21:45:00,80.9,54.3,29.43,SSE,153,2.0,2.0,40,0.00,,,0.00,Wunderground v.1.13,2013-07-06 03:45:00,
2013-07-05 21:50:00,80.7,54.1,29.44,SE,136,3.0,3.0,40,0.00,,,0.00,Wunderground v.1.13,2013-07-06 03:50:00,
2013-07-05 21:55:00,80.3,54.5,29.44,SSE,163,3.0,3.0,41,0.00,,,0.00,Wunderground v.1.13,2013-07-06 03:55:00,
2013-07-05 22:00:00,80.1,54.3,29.44,SSE,150,2.0,14.0,41,0.00,,,0.00,Wunderground v.1.13,2013-07-06 04:00:00,
2013-07-05 22:05:00,79.8,54.0,29.44,SE,124,2.0,14.0,41,0.00,,,0.00,Wunderground v.1.13,2013-07-06 04:05:00,
2013-07-05 22:15:00,79.4,54.3,29.44,SSE,148,2.0,2.0,42,0.00,,,0.00,Wunderground v.1.13,2013-07-06 04:15:00,
2013-07-05 22:20:00,79.2,54.1,29.44,SSE,164,1.0,1.0,42,0.00,,,0.00,Wunderground v.1.13,2013-07-06 04:20:00,
2013-07-05 22:25:00,79.0,54.6,29.44,SSE,165,2.0,2.0,43,0.00,,,0.00,Wunderground v.1.13,2013-07-06 04:25:00,
2013-07-05 22:30:00,79.0,54.6,29.44,SE,143,4.0,4.0,43,0.00,,,0.00,Wunderground v.1.13,2013-07-06 04:30:00,
2013-07-05 22:35:00,78.8,54.4,29.44,SSE,153,3.0,3.0,43,0.00,,,0.00,Wunderground v.1.13,2013-07-06 04:35:00,
2013-07-05 22:40:00,78.6,54.9,29.44,SSE,162,2.0,2.0,44,0.00,,,0.00,Wunderground v.1.13,2013-07-06 04:40:00,
2013-07-05 22:45:00,78.6,54.2,29.44,SSE,154,2.0,14.0,43,0.00,,,0.00,Wunderground v.1.13,2013-07-06 04:45:00,
2013-07-05 22:50:00,78.6,54.2,29.45,South,169,1.0,1.0,43,0.00,,,0.00,Wunderground v.1.13,2013-07-06 04:50:00,
2013-07-05 22:55:00,78.5,54.8,29.45,SSW,197,0.0,14.0,44,0.00,,,0.00,Wunderground v.1.13,2013-07-06 04:55:00,
2013-07-05 23:05:00,78.3,54.6,29.47,WNW,285,0.0,14.0,44,0.00,,,0.00,Wunderground v.1.13,2013-07-06 05:05:00,
2013-07-05 23:10:00,77.9,54.2,29.47,WNW,288,0.0,14.0,44,0.00,,,0.00,Wunderground v.1.13,2013-07-06 05:10:00,
2013-07-05 23:15:00,77.6,54.6,29.47,WNW,288,0.0,14.0,45,0.00,,,0.00,Wunderground v.1.13,2013-07-06 05:15:00,
2013-07-05 23:20:00,77.0,54.6,29.46,WNW,288,0.0,14.0,46,0.00,,,0.00,Wunderground v.1.13,2013-07-06 05:20:00,
2013-07-05 23:25:00,76.8,54.5,29.46,WNW,288,0.0,14.0,46,0.00,,,0.00,Wunderground v.1.13,2013-07-06 05:25:00,
2013-07-05 23:30:00,77.2,54.8,29.46,WSW,238,0.0,14.0,46,0.00,,,0.00,Wunderground v.1.13,2013-07-06 05:30:00,
2013-07-05 23:35:00,77.2,54.8,29.45,SSE,159,0.0,14.0,46,0.00,,,0.00,Wunderground v.1.13,2013-07-06 05:35:00,
2013-07-05 23:40:00,77.2,55.4,29.45,SE,145,0.0,14.0,47,0.00,,,0.00,Wunderground v.1.13,2013-07-06 05:40:00,
2013-07-05 23:50:00,76.5,55.3,29.45,SE,136,0.0,14.0,48,0.00,,,0.00,Wunderground v.1.13,2013-07-06 05:50:00,
2013-07-05 23:55:00,76.3,55.2,29.45,SE,136,0.0,14.0,48,0.00,,,0.00,Wunderground v.1.13,2013-07-06 05:55:00,